Location: Mohawk View
(42.7837°N, 73.7885°W)
Time: 10:54:43
(UTC+00:00)

Cosmos 468 Rocket - Pass Details

Date: 17 June 2021
Orbit: 743 x 780 km, 74.0° (Epoch: 26 July)

Event Time Altitude Azimuth Distance (km) Brightness Sun altitude
Exits shadow 06:16:05 49° 205° (SSW) 963 4.1 -21.3°
Maximum altitude 06:17:30 85° 289° (WNW) 762 3.9 -21.2°
Drops below altitude 10° 06:22:44 10° 19° (NNE) 2,299 7.7 -20.9°
Sets 06:25:07 0° 20° (NNE) 3,235 8.8 -20.7°
